TimeEST,TemperatureF,Dew PointF,Humidity,Sea Level PressureIn,VisibilityMPH,Wind Direction,Wind SpeedMPH,Gust SpeedMPH,PrecipitationIn,Events,Conditions,WindDirDegrees,DateUTC
12:15 AM,35.6,33.8,93,30.27,5.0,Calm,Calm,-,N/A,,Clear,0,2013-12-17 05:15:00
12:55 AM,33.8,33.8,100,30.26,5.0,Calm,Calm,-,N/A,,Clear,0,2013-12-17 05:55:00
1:15 AM,35.6,35.6,100,30.26,5.0,West,3.5,-,N/A,,Clear,280,2013-12-17 06:15:00
1:35 AM,35.6,35.6,100,30.26,10.0,Calm,Calm,-,N/A,,Clear,0,2013-12-17 06:35:00
1:55 AM,35.6,35.6,100,30.27,9.0,Calm,Calm,-,N/A,,Clear,0,2013-12-17 06:55:00
2:15 AM,33.8,33.8,100,30.26,7.0,Calm,Calm,-,N/A,,Clear,0,2013-12-17 07:15:00
2:35 AM,33.8,32.0,93,30.27,7.0,Calm,Calm,-,N/A,,Clear,0,2013-12-17 07:35:00
2:55 AM,32.0,32.0,100,30.27,5.0,Calm,Calm,-,N/A,,Clear,0,2013-12-17 07:55:00
3:15 AM,32.0,32.0,100,30.26,7.0,Calm,Calm,-,N/A,,Clear,0,2013-12-17 08:15:00
3:35 AM,32.0,32.0,100,30.26,5.0,Calm,Calm,-,N/A,,Clear,0,2013-12-17 08:35:00
3:55 AM,32.0,32.0,100,30.26,5.0,Calm,Calm,-,N/A,,Clear,0,2013-12-17 08:55:00
4:15 AM,32.0,32.0,100,30.26,8.0,Calm,Calm,-,N/A,,Clear,0,2013-12-17 09:15:00
4:35 AM,32.0,32.0,100,30.25,5.0,Calm,Calm,-,N/A,,Clear,0,2013-12-17 09:35:00
4:55 AM,32.0,32.0,100,30.25,8.0,Calm,Calm,-,N/A,,Clear,0,2013-12-17 09:55:00
5:15 AM,32.0,32.0,100,30.25,5.0,Calm,Calm,-,N/A,,Clear,0,2013-12-17 10:15:00
5:35 AM,32.0,32.0,100,30.25,3.0,Calm,Calm,-,N/A,,Clear,0,2013-12-17 10:35:00
5:55 AM,32.0,32.0,100,30.25,7.0,Calm,Calm,-,N/A,,Clear,0,2013-12-17 10:55:00
6:15 AM,32.0,32.0,100,30.26,5.0,Calm,Calm,-,N/A,,Clear,0,2013-12-17 11:15:00
6:35 AM,32.0,32.0,100,30.26,5.0,Calm,Calm,-,N/A,,Clear,0,2013-12-17 11:35:00
6:50 AM,32.0,32.0,100,30.27,10.0,Calm,Calm,-,N/A,,Clear,0,2013-12-17 11:50:00
7:50 AM,32.0,32.0,100,30.28,10.0,Calm,Calm,-,N/A,,Clear,0,2013-12-17 12:50:00
8:50 AM,44.6,39.2,81,30.29,10.0,Calm,Calm,-,N/A,,Clear,0,2013-12-17 13:50:00
9:50 AM,51.8,37.4,58,30.30,10.0,North,9.2,-,N/A,,Clear,360,2013-12-17 14:50:00
10:50 AM,57.2,33.8,41,30.30,10.0,NNW,8.1,-,N/A,,Clear,340,2013-12-17 15:50:00
11:50 AM,59.0,32.0,36,30.27,10.0,North,4.6,-,N/A,,Clear,360,2013-12-17 16:50:00
12:50 PM,64.4,32.0,30,30.23,10.0,Calm,Calm,-,N/A,,Clear,0,2013-12-17 17:50:00
1:50 PM,66.2,32.0,28,30.21,10.0,Calm,Calm,-,N/A,,Clear,0,2013-12-17 18:50:00
2:50 PM,66.2,32.0,28,30.19,10.0,Calm,Calm,-,N/A,,Clear,0,2013-12-17 19:50:00
3:50 PM,66.2,32.0,28,30.19,10.0,Variable,4.6,-,N/A,,Clear,0,2013-12-17 20:50:00
4:50 PM,64.4,35.6,34,30.19,10.0,Calm,Calm,-,N/A,,Clear,0,2013-12-17 21:50:00
5:50 PM,50.0,44.6,82,30.19,10.0,Calm,Calm,-,N/A,,Clear,0,2013-12-17 22:50:00
6:50 PM,46.4,42.8,87,30.20,10.0,Calm,Calm,-,N/A,,Clear,0,2013-12-17 23:50:00
7:50 PM,42.8,41.0,93,30.22,10.0,Calm,Calm,-,N/A,,Clear,0,2013-12-18 00:50:00
8:15 PM,41.0,41.0,100,30.23,10.0,Calm,Calm,-,N/A,,Clear,0,2013-12-18 01:15:00
8:35 PM,41.0,39.2,93,30.23,10.0,Calm,Calm,-,N/A,,Clear,0,2013-12-18 01:35:00
8:55 PM,41.0,39.2,93,30.23,10.0,Calm,Calm,-,N/A,,Clear,0,2013-12-18 01:55:00
9:15 PM,39.2,39.2,100,30.23,10.0,Calm,Calm,-,N/A,,Clear,0,2013-12-18 02:15:00
9:35 PM,39.2,39.2,100,30.23,6.0,Calm,Calm,-,N/A,,Clear,0,2013-12-18 02:35:00
9:55 PM,39.2,39.2,100,30.23,10.0,Calm,Calm,-,N/A,,Clear,0,2013-12-18 02:55:00
10:15 PM,39.2,37.4,93,30.22,10.0,Calm,Calm,-,N/A,,Clear,0,2013-12-18 03:15:00
10:35 PM,37.4,37.4,100,30.22,10.0,Calm,Calm,-,N/A,,Clear,0,2013-12-18 03:35:00
10:55 PM,37.4,37.4,100,30.23,10.0,Calm,Calm,-,N/A,,Clear,0,2013-12-18 03:55:00
11:15 PM,37.4,37.4,100,30.23,10.0,Calm,Calm,-,N/A,,Clear,0,2013-12-18 04:15:00
11:35 PM,37.4,37.4,100,30.23,9.0,Calm,Calm,-,N/A,,Clear,0,2013-12-18 04:35:00
11:55 PM,37.4,37.4,100,30.23,8.0,Calm,Calm,-,N/A,,Clear,0,2013-12-18 04:55:00